Regional Weather Roundup
Issued by NWS

Home | Current Version | Previous Version | Graphics & Text | Print | Product List | Glossary On
Versions: 1 2 3 4 5 6 7 8 9 10 11 12 13 14 15 16 17 18 19 20 21 22 23 24 25 26 27 28 29 30 31 32 33 34 35 36 37 38 39 40 41 42 43 44 45 46 47 48 49 50
000
ASUS43 KMKX 272200
RWRWI

WISCONSIN REGIONAL WEATHER ROUNDUP
NATIONAL WEATHER SERVICE MILWAUKEE/SULLIVAN WI
500 PM CDT MON JUL 27 2015

NOTE: "FAIR" INDICATES FEW OR NO CLOUDS BELOW 12,000 FEET WITH NO
SIGNIFICANT WEATHER AND/OR OBSTRUCTIONS TO VISIBILITY.

WIZ001-002-006>008-014>016-023>028-272300-
NORTHWEST WISCONSIN

CITY           SKY/WX    TMP DP  RH WIND       PRES   REMARKS
SUPERIOR ARPT  FAIR      83  69  61 NE8       29.93F HX  87
ASHLAND        FAIR      88  55  32 S7G17     29.95F HX  86
HAYWARD        FAIR      85  61  44 S12       29.97F HX  85
SIREN          FAIR      85  66  52 S12       29.95F HX  87
CUMBERLAND     FAIR      79  66  65 S9        29.97F HX  81
RICE LAKE      FAIR      82  65  56 SE9       29.99S HX  83
CHETEK         FAIR      83  67  59 SE9       29.97S HX  85
LADYSMITH      FAIR      83  62  47 SE9       30.00F HX  84
EAU CLAIRE     NOT AVBL
MENOMONIE      FAIR      83  67  57 SE10      29.96F HX  86
NEW RICHMOND   FAIR      83  68  60 S8        29.95F HX  86
OSCEOLA        PTSUNNY   84  71  63 SE9       29.96F HX  89
$$

WIZ003>005-009-010-017-018-272300-
NORTH CENTRAL WISCONSIN

CITY           SKY/WX    TMP DP  RH WIND       PRES   REMARKS
MANITOWISH WTR FAIR      85  55  35 S9        30.02F HX  84
ARBOR VITAE    FAIR      85  53  33 SE12      30.03F HX  83
WOODRUFF       FAIR      85  53  33 SE12      30.03F HX  83
RHINELANDER    FAIR      86  58  38 S8G18     30.04F HX  85
EAGLE RIVER    FAIR      86  51  29 S6        30.03F HX  84
LAND O LAKES   FAIR      88  47  24 S6        30.04F HX  85
PHILLIPS       FAIR      84  58  40 S8        30.00F HX  84
TOMAHAWK       FAIR      85  59  41 SE3       30.02F HX  85
MEDFORD        FAIR      79  64  60 SE5       30.02F HX  81
MERRILL        NOT AVBL
$$

WIZ029-030-035-036-043>047-272300-
CENTRAL WISCONSIN

CITY           SKY/WX    TMP DP  RH WIND       PRES   REMARKS
WAUSAU         FAIR      86  60  41 SE12      30.00F HX  86
MOSINEE        NOT AVBL
MARSHFIELD     FAIR      85  62  46 SE12      29.99F HX  85
STEVENS POINT  FAIR      84  60  44 SE10      30.01F HX  84
WAUPACA        FAIR      89  60  37 SE8       30.01F HX  88
WAUTOMA        NOT AVBL
WISC RAPIDS    FAIR      87  58  37 SE9       30.00F HX  86
CAMP DOUGLAS   NOT AVBL
$$

WIZ011>013-019>022-031-037>040-048>050-272300-
NORTHEAST WISCONSIN

CITY           SKY/WX    TMP DP  RH WIND       PRES   REMARKS
ANTIGO         FAIR      83  60  45 S12       30.05F HX  83
SHAWANO        FAIR      88  62  40 SE8       30.02F HX  88
OCONTO         FAIR      87  62  43 S9        30.01F HX  87
STURGEON BAY   FAIR      84  61  45 S8        30.05S HX  84
GREEN BAY      FAIR      86  64  47 S7        30.01F HX  87
MANITOWOC      NOT AVBL
APPLETON       MOSUNNY   86  57  37 SE10      30.03S HX  85
CLINTONVILLE   FAIR      86  61  42 S8        30.01F HX  86
OSHKOSH        FAIR      85  61  44 SE9       30.00F HX  85
$$

WIZ032>034-041-042-053>061-272300-
SOUTHWEST WISCONSIN

CITY           SKY/WX    TMP DP  RH WIND       PRES   REMARKS
LA CROSSE      FAIR      86  68  54 S13       29.94F HX  89
SPARTA         FAIR      88  62  41 SE9       29.97F HX  88
VIROQUA        FAIR      83  68  61 SE7       30.00S HX  86
BOSCOBEL       FAIR      88  68  51 VRB5      29.96F HX  91
PRAIRIE DU CHI FAIR      86  65  50 SE7       29.96S HX  87
PLATTEVILLE    FAIR      83  69  62 S7        30.00S HX  87
$$

WIZ056-057-062-063-064-067-068-272300-
SOUTH CENTRAL WISCONSIN

CITY           SKY/WX    TMP DP  RH WIND       PRES   REMARKS
REEDSBURG      FAIR      87  66  49 E6        29.98F HX  89
BARABOO/DELLS  FAIR      87  61  41 E8        30.00S HX  87
LONE ROCK      NOT AVBL
MINERAL POINT  FAIR      86  68  54 SE6       30.01S HX  89
MADISON        PTSUNNY   87  67  51 E9        29.98F HX  90
MIDDLETON      FAIR      87  65  48 E9        30.00F HX  88
WATERTOWN      FAIR      83  63  51 E7        30.01S HX  84
MONROE         FAIR      86  68  54 E3        30.00S HX  89
JANESVILLE     PTSUNNY   88  63  42 E9        29.98F HX  88
$$

WIZ051-052-058>065-066-070>072-272300-
SOUTHEAST WISCONSIN

CITY           SKY/WX    TMP DP  RH WIND       PRES   REMARKS
MILWAUKEE      PTSUNNY   82  60  47 E8        30.01F HX  82
WAUKESHA       SUNNY     81  59  47 SE14      30.02F HX  81
MILWAUKEE/TIMM NOT AVBL
RACINE         FAIR      82  61  48 E7        30.03F HX  83
BURLINGTON     FAIR      84  60  44 E8        30.01F HX  84
KENOSHA        FAIR      83  64  52 E8        30.01F HX  84
FOND DU LAC    FAIR      85  62  46 S9        30.01F HX  85
SHEBOYGAN      FAIR      83  63  50 VRB7      30.02F HX  84
WEST BEND      FAIR      82  55  39 CALM      30.03F HX  82
JUNEAU           N/A     82  64  53 SE6       30.03F HX  83
$$

LSZ147-162-272300-
LAKE SUPERIOR

STATION/POSITION TIME  TEMP    WIND        PRES    WAVE
                       AIR SEA DIR/SP/G            HT/PER
                 (UTC) (F)     (DEG/KT/KT) (MB)    (FT/S)
W MID LAKE BUOY  2050   72 66     CALM     1014.6F   0
DEVILS ISLAND    2100   76      60/ 10/ 11 1014.2F
PORT WING        2100   77      20/  9/ 13 1014.2
SAXON HARBOR     2140   80                 1013.9F
$$

LMZ867-665-643>646-272300-
LAKE MICHIGAN

STATION/POSITION TIME  TEMP    WIND        PRES    WAVE
                       AIR SEA DIR/SP/G            HT/PER
                 (UTC) (F)     (DEG/KT/KT) (MB)    (FT/S)
CHAMBERS ISLAND  2100   84     210/  4/  8 1016.3S
N MID LAKE BUOY  2050   73 71  210/  6/  8 1016.7F   0
NORTHPORT PIER   2100   78     140/  5/  8 1016.6F
SISTER BAY       2114   85        CALM       N/A
ALGOMA LAKESHORE 2027          220/  7/  8   N/A
KEWAUNEE LAKESHO 2100   72     170/  5/  6 1016.7F
SHEBOYGAN LAKESH 2100   75     120/  5/  5 1017.2F
PORT WASHINGTON  2100   79      50/  3/  4 1017.3
ATWATER BUOY     2100   75      50/  2/  4 1018.3F
MILWAUKEE LAKESH 2100   73      50/  5/  6   N/A
KENOSHA   LAKESH 2100   76      60/  4/  5 1016.3F
$$

TC  - TEMPERATURE IN CELSIUS
VSB - VISIBILITY IN STATUTE MILES
WCI - WIND CHILL INDEX
HX  - HEAT INDEX



USA.gov is the U.S. government's official web portal to all federal, state and local government web resources and services.